FW8093 Weather Reports


Display with metric or nautical units.
time (UTC)temp
F
wind
direction
speed
MPH
gust
MPH
rain 1hr
in
rain 24hr
in
rain mn
in
humidity
%
barometer
mb
20260505004038 63 0 8.0 13.0 0.00 0.00 0.00 44 1007.2
20260505003535 64 299 13.0 22.0 0.00 0.00 0.00 45 1006.6
20260505003032 65 318 16.0 20.0 0.00 0.00 0.00 44 1006.6
20260505002526 66 322 9.0 13.0 0.00 0.00 0.00 41 1006.6
20260505002026 67 11 10.0 11.0 0.00 0.00 0.00 38 1006.6
20260505001523 68 46 6.0 8.0 0.00 0.00 0.00 39 1006.0
20260505001020 69 42 6.0 7.0 0.00 0.00 0.00 36 1006.3
20260505000517 69 73 4.0 6.0 0.00 0.00 0.00 35 1005.8
20260505000015 70 325 6.0 9.0 0.00 0.00 0.00 34 1005.7
20260504235511 71 254 0.0 0.0 0.00 0.00 0.00 34 1005.4
20260504235007 72 239 0.0 0.0 0.00 0.00 0.00 31 1005.2
20260504234505 72 231 0.0 0.0 0.00 0.00 0.00 29 1005.3
20260504234002 72 246 0.0 0.0 0.00 0.00 0.00 31 1005.3
20260504233457 73 253 0.0 0.0 0.00 0.00 0.00 29 1005.3
20260504232954 73 254 1.0 1.0 0.00 0.00 0.00 29 1005.4
20260504232451 75 309 5.0 6.0 0.00 0.00 0.00 30 1005.3
20260504231949 74 255 1.0 1.0 0.00 0.00 0.00 29 1005.2
20260504231445 75 321 1.0 2.0 0.00 0.00 0.00 26 1005.4
20260504230941 73 240 0.0 0.0 0.00 0.00 0.00 28 1005.8
20260504230438 73 134 3.0 3.0 0.00 0.00 0.00 28 1005.7
20260504225937 74 313 4.0 5.0 0.00 0.00 0.00 30 1005.4
20260504225433 74 20 3.0 3.0 0.00 0.00 0.00 29 1005.6
20260504224931 74 282 3.0 3.0 0.00 0.00 0.00 26 1005.6
20260504224427 75 246 3.0 5.0 0.00 0.00 0.00 26 1005.7
20260504223924 74 253 0.0 0.0 0.00 0.00 0.00 29 1006.1
20260504223420 74 11 3.0 3.0 0.00 0.00 0.00 30 1005.9
20260504222916 74 307 3.0 5.0 0.00 0.00 0.00 29 1005.9
20260504222413 74 304 5.0 6.0 0.00 0.00 0.00 29 1006.3
20260504221911 74 313 4.0 5.0 0.00 0.00 0.00 28 1006.0
20260504221408 75 23 4.0 6.0 0.00 0.00 0.00 30 1006.0
20260504220905 75 49 0.0 1.0 0.00 0.00 0.00 27 1006.0
20260504220401 75 262 0.0 0.0 0.00 0.00 0.00 27 1006.1
20260504215859 74 223 0.0 0.0 0.00 0.00 0.00 28 1006.4
20260504215355 75 299 5.0 6.0 0.00 0.00 0.00 28 1006.5
20260504214852 75 228 4.0 5.0 0.00 0.00 0.00 28 1006.5
20260504214348 75 272 4.0 5.0 0.00 0.00 0.00 28 1006.5
20260504213845 75 238 1.0 2.0 0.00 0.00 0.00 28 1006.7
20260504213341 75 314 3.0 5.0 0.00 0.00 0.00 28 1006.5
20260504212838 74 340 4.0 5.0 0.00 0.00 0.00 30 1006.8
20260504212334 74 39 4.0 5.0 0.00 0.00 0.00 30 1006.8
20260504211832 75 350 2.0 2.0 0.00 0.00 0.00 29 1007.1
20260504211328 74 243 2.0 2.0 0.00 0.00 0.00 28 1006.9
20260504210826 75 219 3.0 3.0 0.00 0.00 0.00 28 1006.8
20260504210323 75 255 1.0 1.0 0.00 0.00 0.00 29 1007.1
20260504205820 76 255 1.0 1.0 0.00 0.00 0.00 29 1007.1
20260504205318 74 216 0.0 1.0 0.00 0.00 0.00 30 1007.2
20260504204815 74 251 0.0 1.0 0.00 0.00 0.00 28 1007.4
20260504204314 73 223 2.0 2.0 0.00 0.00 0.00 30 1007.4
20260504203813 73 224 2.0 2.0 0.00 0.00 0.00 29 1007.3
20260504203309 73 228 3.0 5.0 0.00 0.00 0.00 29 1007.5
20260504202804 73 256 1.0 2.0 0.00 0.00 0.00 30 1007.3
20260504202304 73 242 0.0 0.0 0.00 0.00 0.00 30 1007.4
20260504201759 73 306 1.0 2.0 0.00 0.00 0.00 32 1007.5
20260504201256 72 278 1.0 2.0 0.00 0.00 0.00 33 1007.9
20260504200754 73 289 3.0 3.0 0.00 0.00 0.00 32 1007.5
20260504200249 73 212 1.0 2.0 0.00 0.00 0.00 30 1007.7
20260504195746 72 226 3.0 3.0 0.00 0.00 0.00 29 1007.9
20260504195242 73 342 3.0 5.0 0.00 0.00 0.00 30 1008.0
20260504194739 73 278 3.0 5.0 0.00 0.00 0.00 31 1008.0
20260504194235 72 202 2.0 2.0 0.00 0.00 0.00 32 1008.1
20260504193732 72 243 3.0 3.0 0.00 0.00 0.00 33 1008.1
20260504193229 72 236 5.0 6.0 0.00 0.00 0.00 32 1008.0
20260504192728 72 254 2.0 2.0 0.00 0.00 0.00 34 1008.1
20260504192225 72 221 1.0 2.0 0.00 0.00 0.00 31 1008.4
20260504191724 71 273 2.0 2.0 0.00 0.00 0.00 32 1008.4
20260504191220 72 274 1.0 3.0 0.00 0.00 0.00 31 1008.3
20260504190715 70 261 1.0 2.0 0.00 0.00 0.00 35 1008.9
20260504190212 70 228 3.0 5.0 0.00 0.00 0.00 34 1008.7
20260504185709 70 255 1.0 2.0 0.00 0.00 0.00 36 1008.7
20260504185205 70 228 1.0 2.0 0.00 0.00 0.00 34 1008.5
20260504184702 71 203 4.0 5.0 0.00 0.00 0.00 34 1008.7
20260504184157 70 276 1.0 2.0 0.00 0.00 0.00 36 1008.8
20260504183654 69 307 5.0 6.0 0.00 0.00 0.00 36 1008.9
20260504183151 69 220 5.0 6.0 0.00 0.00 0.00 36 1008.9
20260504182649 68 220 0.0 0.0 0.00 0.00 0.00 35 1009.2
20260504182146 69 201 3.0 3.0 0.00 0.00 0.00 35 1009.1
20260504181644 69 213 1.0 1.0 0.00 0.00 0.00 35 1009.2
20260504181141 69 225 3.0 5.0 0.00 0.00 0.00 37 1009.2
20260504180640 68 197 3.0 5.0 0.00 0.00 0.00 36 1009.1
20260504180138 68 210 0.0 0.0 0.00 0.00 0.00 36 1009.5
20260504175635 68 236 3.0 3.0 0.00 0.00 0.00 37 1009.4
20260504175131 66 198 3.0 3.0 0.00 0.00 0.00 40 1009.2
20260504174630 67 211 4.0 6.0 0.00 0.00 0.00 37 1009.4
20260504174126 67 244 1.0 2.0 0.00 0.00 0.00 37 1009.5
20260504173624 66 256 0.0 1.0 0.00 0.00 0.00 42 1009.5
20260504173121 68 261 2.0 2.0 0.00 0.00 0.00 38 1009.6
20260504172617 67 248 2.0 2.0 0.00 0.00 0.00 40 1009.7
20260504172114 67 286 4.0 5.0 0.00 0.00 0.00 37 1009.5
20260504171610 66 268 3.0 3.0 0.00 0.00 0.00 40 1009.5
20260504171108 65 261 1.0 1.0 0.00 0.00 0.00 40 1009.7
20260504170603 66 256 2.0 3.0 0.00 0.00 0.00 41 1009.7
20260504150947 53 299 1.0 1.0 0.00 0.00 0.00 60 1009.9
20260504150444 53 296 1.0 1.0 0.00 0.00 0.00 60 1009.8
20260504140910 46 319 0.0 0.0 0.00 0.00 0.00 71 1010.0
20260504140406 45 319 0.0 0.0 0.00 0.00 0.00 73 1009.7
20260504130331 37 238 0.0 0.0 0.00 0.00 0.00 89 1009.9
20260504120254 37 218 0.0 0.0 0.00 0.00 0.00 84 1009.6
20260504110218 39 257 0.0 0.0 0.00 0.00 0.00 81 1009.8
20260504100142 41 247 0.0 0.0 0.00 0.00 0.00 76 1009.6
20260504090105 44 197 0.0 1.0 0.00 0.00 0.00 70 1009.6
20260504081535 46 295 2.0 2.0 0.00 0.00 0.00 67 1009.7
20260504081031 44 293 2.0 3.0 0.00 0.00 0.00 69 1009.6
20260504080527 44 304 2.0 2.0 0.00 0.00 0.00 70 1009.7
20260504050340 50 226 0.0 0.0 0.00 0.00 0.00 61 1009.7
20260504045838 50 226 0.0 0.0 0.00 0.00 0.00 61 1009.6
20260504045332 49 224 0.0 0.0 0.00 0.00 0.00 65 1009.9
20260504044829 49 222 0.0 0.0 0.00 0.00 0.00 66 1009.9
20260504044327 50 222 0.0 0.0 0.00 0.00 0.00 65 1009.9
20260504043824 50 222 0.0 0.0 0.00 0.00 0.00 63 1010.0
20260504043321 51 222 0.0 0.0 0.00 0.00 0.00 59 1010.0
20260504042818 51 223 0.0 0.0 0.00 0.00 0.00 60 1010.0
20260504042314 51 223 0.0 0.0 0.00 0.00 0.00 61 1009.8
20260504041811 51 216 0.0 0.0 0.00 0.00 0.00 58 1010.0
20260504041307 50 216 0.0 0.0 0.00 0.00 0.00 60 1009.9
20260504040803 50 216 0.0 0.0 0.00 0.00 0.00 64 1009.8
20260504040301 51 216 0.0 0.0 0.00 0.00 0.00 64 1009.8
20260504035756 52 216 0.0 0.0 0.00 0.00 0.00 61 1010.0
20260504035254 52 216 0.0 0.0 0.00 0.00 0.00 60 1009.8
20260504034751 52 216 0.0 0.0 0.00 0.00 0.00 59 1009.8
20260504034248 52 216 0.0 0.0 0.00 0.00 0.00 59 1009.7
20260504033746 52 216 0.0 0.0 0.00 0.00 0.00 61 1009.8
20260504033243 52 216 0.0 0.0 0.00 0.00 0.00 62 1009.7
20260504032740 54 216 0.0 0.0 0.00 0.00 0.00 62 1009.5
20260504032237 55 216 0.0 0.0 0.00 0.00 0.00 58 1009.7
20260504031734 56 216 0.0 0.0 0.00 0.00 0.00 57 1009.7
20260504031231 58 216 0.0 0.0 0.00 0.00 0.00 49 1009.6
20260504030727 59 216 0.0 0.0 0.00 0.00 0.00 44 1009.6
20260504030224 60 216 0.0 0.0 0.00 0.00 0.00 40 1009.7
20260504025721 60 216 0.0 0.0 0.00 0.00 0.00 40 1009.6
20260504025217 60 216 0.0 0.0 0.00 0.00 0.00 40 1009.6
20260504024715 61 216 0.0 0.0 0.00 0.00 0.00 40 1009.4
20260504024211 61 216 0.0 0.0 0.00 0.00 0.00 39 1009.6
20260504023708 62 216 0.0 0.0 0.00 0.00 0.00 39 1009.6
20260504023204 62 216 0.0 0.0 0.00 0.00 0.00 39 1009.6
20260504022700 63 216 0.0 0.0 0.00 0.00 0.00 38 1009.7
20260504022156 64 216 0.0 0.0 0.00 0.00 0.00 37 1009.6
20260504021654 64 216 0.0 0.0 0.00 0.00 0.00 36 1009.5
20260504021150 65 216 0.0 0.0 0.00 0.00 0.00 36 1009.4
20260504020648 66 216 0.0 0.0 0.00 0.00 0.00 35 1009.5
20260504020144 67 216 0.0 0.0 0.00 0.00 0.00 33 1009.4
20260504015641 68 216 0.0 0.0 0.00 0.00 0.00 32 1009.4
20260504015137 69 216 0.0 0.0 0.00 0.00 0.00 32 1009.5
20260504014633 70 213 3.0 3.0 0.00 0.00 0.00 29 1009.5
20260504014130 70 211 3.0 3.0 0.00 0.00 0.00 29 1009.5
20260504013628 70 208 3.0 3.0 0.00 0.00 0.00 29 1009.6
20260504013124 71 217 1.0 1.0 0.00 0.00 0.00 30 1009.8
20260504012622 71 220 4.0 5.0 0.00 0.00 0.00 28 1009.6
20260504012120 71 200 3.0 3.0 0.00 0.00 0.00 27 1010.0
20260504011616 72 215 3.0 3.0 0.00 0.00 0.00 26 1009.7
20260504011113 73 200 1.0 1.0 0.00 0.00 0.00 27 1010.0
20260504010608 73 201 2.0 2.0 0.00 0.00 0.00 27 1010.2
20260504010105 73 214 1.0 1.0 0.00 0.00 0.00 28 1010.0
20260504005601 73 210 1.0 1.0 0.00 0.00 0.00 27 1009.9
20260504005059 73 213 3.0 3.0 0.00 0.00 0.00 24 1010.2
20260504004556 73 202 1.0 2.0 0.00 0.00 0.00 24 1010.2